Regional Weather Roundup
Issued by NWS

Home | Current Version | Previous Version | Text Only | Print | Product List | Glossary Off
Versions: 1 2 3 4 5 6 7 8 9 10 11 12 13 14 15 16 17 18 19 20 21 22 23 24 25 26 27

000
ASUS45 KBOU 190906
RWRCO

WEATHER ROUNDUP FOR COLORADO
NATIONAL WEATHER SERVICE DENVER/BOULDER CO
300 AM MDT SAT APR 19 2014

NOTE: "FAIR" INDICATES FEW OR NO CLOUDS BELOW 12000 FEET WITH NO
SIGNIFICANT WEATHER AND/OR OBSTRUCTIONS TO VISIBILITY.

COZ001>005-013-030-031-191000-
...NORTHWEST COLORADO...

CITY           SKY/WX    TMP DP  RH WIND       PRES   REMARKS
CRAIG          MOCLDY    38  33  82 SE5       30.04S
HAYDEN         MOCLDY    41  28  60 CALM      30.07S
MEEKER         CLOUDY    55  29  36 W6        30.05R
MOUNT WERNER   CLOUDY    39  21  48 W10       30.21S
STEAMBOAT SPGS CLOUDY    42  27  54 CALM      30.05F
WALDEN         CLOUDY    34  23  64 E5        30.09S WCI  30
$$

COZ006>008-011-191000-
...WEST CENTRAL VALLEYS...

CITY           SKY/WX    TMP DP  RH WIND       PRES   REMARKS
GRAND JUNCTION CLOUDY    57  34  41 NW6       30.01S
MONTROSE       CLOUDY    55  32  41 CALM      30.06S
EAGLE          PTCLDY    48  34  57 SE3       30.08S
RIFLE          CLOUDY    51  32  48 SE5       30.02S
DELTA          CLOUDY    62  32  33 SW7       30.03S
NUCLA            N/A     54  34  47 S10       30.13S
$$

COZ017>023-064>068-191000-
...SOUTHWEST COLORADO...

CITY           SKY/WX    TMP DP  RH WIND       PRES   REMARKS
DURANGO        LGT RAIN  46  42  86 SW6       30.14F
CORTEZ         LGT RAIN  48  44  86 NW6       30.12F
PAGOSA SPRINGS DRIZZLE   46  38  75 S12G17    30.17S
TELLURIDE      CLOUDY    43  32  65 SE3       30.18F
WOLF CREEK PAS HVY SNOW  27  27 100 SW16G28   30.26F VSB<1/4 WCI  14
$$

COZ009-010-012-014-032>034-037-058>063-191000-
...CENTRAL COLORADO...

CITY           SKY/WX    TMP DP  RH WIND       PRES   REMARKS
ASPEN          PTCLDY    40  29  64 S7        30.10F
BUENA VISTA    PTCLDY    40  27  59 CALM      30.10S
COPPER MTN     PTCLDY    34  23  64 SW8       30.26F WCI  27
BERTHOUD PASS  MOCLDY    27  18  69 W20G26    30.27F WCI  13
COTTONWOOD PAS PTCLDY    45  23  42 W9        30.17S
GUNNISON       MOCLDY    39  25  56 CALM      30.14F
KREMMLING      MOCLDY    46  28  49 SE10      30.08F
LEADVILLE      PTCLDY    33  22  63 NE7       30.18S WCI  27
MONARCH PASS   CLOUDY    32  23  69 W17       30.35F WCI  21
SALIDA         MOCLDY    46  28  49 CALM      30.15S
SUNLIGHT       PTCLDY    36  30  80 CALM      30.23S
WILKERSON PASS CLOUDY    36  19  51 W7        30.25F
$$

COZ069>075-191000-
...SAN LUIS VALLEY/SANGRE DE CRISTO MOUNTAINS...

CITY           SKY/WX    TMP DP  RH WIND       PRES   REMARKS
ALAMOSA        CLOUDY    45  32  60 S15       30.12S
LA VETA PASS   NOT AVBL
SAGUACHE       MOCLDY    45  25  45 W5        30.10F
$$

COZ035-036-038>040-191000-
...NORTHERN COLORADO FRONT RANGE...

CITY           SKY/WX    TMP DP  RH WIND       PRES   REMARKS
DENVER INTL AP CLOUDY    55  28  35 SW9       29.92R
DMNS CITY PARK   N/A     56  28  33 S8        29.92S
AURORA         MOCLDY    52  30  43 S9        29.94S
FRONT RANGE AP NOT AVBL
ERIE MUNI ARPT CLOUDY    53  33  46 SW5       29.90S
BOULDER MUN AP CLOUDY    63  27  25 SW10      29.91S
CENTENNIAL     CLOUDY    55  27  34 N5        29.95R
BROOMFIELD     CLOUDY    59  28  31 W6        29.94S
FORT COLLINS   CLOUDY    52  34  50 CALM      29.92S
LONGMONT       CLOUDY    62  28  27 SW8       29.91F
$$

COZ041-046-047-076>085-087-088-191000-
...PIKES PEAK/PALMER DIVIDE AND SOUTHERN FOOTHILLS...

CITY           SKY/WX    TMP DP  RH WIND       PRES   REMARKS
COLO. SPRINGS  CLOUDY    49  30  48 N9        29.97F
A. F. ACADEMY  CLOUDY    46  30  53 NE8       29.99S
ELLICOTT       NOT AVBL
FALCON         CLOUDY    50  26  38 NW9       30.02R
FORT CARSON    CLOUDY    50  31  47 NW3       29.95S
LIMON          CLOUDY    39  35  86 N3        29.92R
MONUMENT HILL  CLOUDY    50  27  40 SW12      30.00S
TRINIDAD       CLOUDY    55  37  50 SW13      29.99S
$$

COZ042>045-048>051-090-091-191000-
...NORTHEAST COLORADO...

CITY           SKY/WX    TMP DP  RH WIND       PRES   REMARKS
GREELEY ARPT   MOCLDY    45  30  57 N5        29.90F
AKRON          CLOUDY    55  37  50 W15       29.85S
BURLINGTON     MOCLDY    50  41  71 S12       29.86F
WRAY           CLOUDY    55  43  65 S5        29.83F
STERLING       CLOUDY    52  43  71 CALM      29.85S
HOLYOKE        MOCLDY    48  43  81 E7        29.84R
FORT MORGAN    CLOUDY    51  34  52 N6        29.88S
$$

COZ086-089-092>099-191000-
...SOUTHEAST COLORADO...

CITY           SKY/WX    TMP DP  RH WIND       PRES   REMARKS
PUEBLO         CLOUDY    50  38  63 NE5       29.90S
LA JUNTA       CLOUDY    59  36  42 W14       29.87F
LAMAR          CLOUDY    59  38  45 N3        29.84F
SPRINGFIELD      N/A     54  42  64 S20       29.95S
$$



USA.gov is the U.S. government's official web portal to all federal, state and local government web resources and services.